Location: Unspecified
(0.0000°N, 0.0000°E)
Time: 02:57:14
(UTC+00:00)

SEEDS - Visible Passes

Search period start: 19 November 2017 00:00
Search period end: 29 November 2017 00:00
Orbit: 587 x 606 km, 97.6° (Epoch: 18 November)

Date Brightness Start Highest point End Pass type
(mag) Time Alt. Az. Time Alt. Az. Time Alt. Az.
19 Nov ? 19:26:01 10° S 19:29:54 39° WSW 19:33:46 10° NNW visible
20 Nov ? 19:36:24 10° SSW 19:39:56 27° WSW 19:43:29 10° NW visible
21 Nov ? 18:12:13 10° ESE 18:14:34 15° ENE 18:16:55 10° NE visible
21 Nov ? 19:46:57 10° SSW 19:49:59 20° WSW 19:53:00 10° NW visible
22 Nov ? 18:21:30 10° SE 18:24:37 21° ENE 18:27:43 10° NNE visible
22 Nov ? 19:57:48 10° SW 20:00:01 14° WSW 20:02:14 10° WNW visible
23 Nov ? 18:31:03 10° SE 18:34:39 29° ENE 18:38:14 10° NNE visible
24 Nov ? 18:40:47 10° SSE 18:44:42 41° ENE 18:48:36 10° N visible
25 Nov ? 18:50:39 10° SSE 18:54:44 59° ENE 18:58:49 10° N visible
26 Nov ? 19:00:37 10° SSE 19:04:46 86° E 19:08:55 10° N visible
27 Nov ? 19:10:42 10° S 19:14:48 65° WSW 19:18:55 10° NNW visible
28 Nov ? 19:20:53 10° S 19:24:51 45° WSW 19:28:48 10° NNW visible
